Location: Mitty Observatory
(35.9148°N, 88.8847°W)
Time: 23:29:20
(UTC-06:00)

LightSail 2 - Pass Details

Date: 14 November 2019
Orbit: 695 x 731 km, 24.0° (Epoch: 05 December)

Event Time Altitude Azimuth Distance (km) Brightness Sun altitude
Exits shadow 04:44:31 18° 210° (SSW) 1,723 6.9 -21.6°
Maximum altitude 04:46:20 22° 182° (S) 1,568 6.9 -21.2°
Drops below altitude 10° 04:50:16 10° 133° (SE) 2,213 8.4 -20.4°
Sets 04:53:13 0° 118° (ESE) 3,135 9.8 -19.8°
